Погода в Свиноуйсьце

Польша     53°54′22″N   14°14′47″E
темп.,
°C
ветер,
м/с
пор.,
м/с
влажн.,
%
обл.,
%
осадки,
мм/ч
давл.,
гПа
погр.,
м
26 февраля, пт
пт2601:00+6зсз679070 0.0 102589
04:00+5зсз5780100 0.0 102692
07:00+4з6983100 0.0 1026145
10:00+5зсз71180100 0.0 1026195
13:00+6зсз8127783 0.0 1027241
16:00+6зсз811790 0.0 1026208
19:00+5зсз8127910 0.0 1027195
22:00+5зсз8128184 0.0 1028226
27 февраля, сб
сб2701:00+4зсз9148774 0.0 1030297
04:00+3зсз711943 0.0 1029266
07:00+3зсз699519 0.0 1031224
10:00+3зсз569151 0.0 1033128
13:00+4ссз458126 0.0 1035104
16:00+4ссз55750 0.0 103493
19:00+4сз45750 0.0 103537
22:00+4з45780 0.0 103553
28 февраля, вс
вс2801:00+3зюз459122 0.0 103574
04:00+4з5794100 0.0 1034112
07:00+3з589464 0.0 1034163
10:00+3з569417 0.0 1034142
13:00+4сз339147 0.0 103491
16:00+4ссз339033 0.0 103384
19:00+4ссз239217 0.0 103423
22:00+3ссз11940 0.0 103422
1 марта, пн
пн101:00+3зюз22930 0.0 103522
04:00+3зюз22930 0.0 103422
07:00+3ююз22920 0.0 103522
10:00+3ююз22900 0.0 103640
13:00+4ю23850 0.0 103658
16:00+5ююв33790 0.0 103537
19:00+6ю34780 0.0 103524
22:00+5ю45820 0.0 103630
2 марта, вт
вт201:00+5ю45810 0.0 103538
04:00+4ю45830 0.0 103438
07:00+3ю45860 0.0 103449
10:00+4ююв55840 0.0 103477
13:00+5ююв45780 0.0 103361
16:00+7ююв45720 0.0 103048
19:00+6ююв45770 0.0 103029
22:00+5ю45770 0.0 102934